Regional Weather Roundup
Issued by NWS

Home | Current Version | Previous Version | Graphics & Text | Print | Product List | Glossary On
Versions: 1 2 3 4 5 6 7 8 9 10 11 12 13 14 15 16 17 18 19 20 21 22 23 24 25 26 27 28 29 30 31 32 33 34 35 36 37 38 39 40 41 42 43 44 45 46 47 48 49 50
000
ASUS43 KTOP 271859
RWRKS

WEATHER ROUNDUP FOR KANSAS
NATIONAL WEATHER SERVICE GOODLAND KS
200 PM CDT WED JUL 27 2016

NOTE:  "FAIR" INDICATES FEW OR NO CLOUDS BELOW 12,000 FEET WITH NO
SIGNIFICANT WEATHER AND/OR OBSTRUCTIONS TO VISIBILITY.

KSZ001>006-013>018-027>032-041>047-272000-
NORTHWEST KANSAS

CITY           SKY/WX    TMP DP  RH WIND       PRES   REMARKS
GOODLAND       SUNNY     86  62  44 SE12G17   30.11F
HAYS           SUNNY     86  66  51 SE3       30.03F
HILL CITY      MOSUNNY   89  68  49 NE12G21   30.05F
RUSSELL        MOSUNNY   89  64  43 CALM      30.01F
$$

KSZ061>065-074>080-084>089-272000-
SOUTHWEST KANSAS

CITY           SKY/WX    TMP DP  RH WIND       PRES   REMARKS
DODGE CITY     SUNNY     90  67  46 VRB3      30.05F
ELKHART          N/A     94  68  42 SE3         N/A  HX  98
GARDEN CITY    SUNNY     88  70  55 SW7       30.05S
GREAT BEND     CLOUDY    86  70  58 W5        30.03F
LIBERAL        SUNNY     93  66  40 SW17      30.03F HX  96
$$

KSZ066>073-081>083-090>101-272000-
SOUTHEAST KANSAS

CITY           SKY/WX    TMP DP  RH WIND       PRES   REMARKS
CHANUTE        PTSUNNY   90  74  59 MISG      29.97F HX  99
COFFEYVILLE    MOSUNNY   89  73  59 VRB5      29.96F HX  97
HUTCHINSON     PTSUNNY   90  72  55 N8        30.01F HX  97
NEWTON         MOSUNNY   85  72  65 VRB3      30.02F
PARSONS        MOSUNNY   88  74  63 VRB3      29.98S HX  96
WICHITA INTL   MOSUNNY   92  72  51 VRB5      29.99F HX  99
WICHITA JABRA  MOSUNNY   87  73  62 VRB5      30.00F
WINFIELD       MOSUNNY   90  72  55 VRB5      29.99F HX  97
$$

KSZ007>012-019>026-033>040-048>060-102>105-272000-
NORTHEAST KANSAS

CITY           SKY/WX    TMP DP  RH WIND       PRES   REMARKS
CONCORDIA      CLOUDY    85  71  63 VRB3      30.03S
EMPORIA        SUNNY     88  70  55 SE3       29.99F
LAWRENCE       MOSUNNY   92  66  42 VRB5      29.98F
MANHATTAN      CLOUDY    87  73  62 N5        29.99F
OLATHE IND     SUNNY     89  64  43 CALM      29.99F
OLATHE EXE     SUNNY     89  65  44 E6        29.98F
SALINA         PTSUNNY   92  69  47 CALM      30.00F HX  97
TOPEKA BILLARD MOSUNNY   89  68  49 NE7       29.98F
TOPEKA FORBES  PTSUNNY   89  70  53 CALM      29.99F
$$




USA.gov is the U.S. government's official web portal to all federal, state and local government web resources and services.